Regional Weather Roundup
Issued by NWS Raleigh/Durham, NC

Home | Current Version | Previous Version | Text Only | Print | Product List | Glossary On
Versions: 1 2 3 4 5 6 7 8 9 10 11 12 13 14 15 16 17 18 19 20 21 22 23 24 25 26 27 28 29 30 31 32 33 34 35 36 37 38 39 40 41 42 43 44 45 46 47 48 49 50
000
ASUS42 KRAH 272110
RWRRAH
NORTH CAROLINA WEATHER ROUNDUP
NATIONAL WEATHER SERVICE RALEIGH NC
400 PM EST FRI FEB 27 2015

NOTE: "FAIR" INDICATES FEW OR NO CLOUDS BELOW 12,000 FEET WITH NO
SIGNIFICANT WEATHER AND/OR OBSTRUCTIONS TO VISIBILITY.

NCZ001-053-055-056-065-067-272200-
WESTERN NORTH CAROLINA

CITY           SKY/WX    TMP DP  RH WIND       PRES   REMARKS
ASHEVILLE      SUNNY     37  21  52 N16       30.33R WCI  28
JEFFERSON      SUNNY     30   9  41 NW10      30.29R WCI  21
MORGANTON      SUNNY     47  15  28 CALM      30.36S
HICKORY        SUNNY     48  20  32 CALM      30.32R
RUTHERFORDTON  SUNNY     51  11  20 NW7       30.33R
MOUNT AIRY     SUNNY     41  19  40 N5        30.38R
BOONE          SUNNY     29  16  57 W10       30.30R WCI  20
$$

NCZ021-022-025-041-071-084-088-272200-
CENTRAL NORTH CAROLINA

CITY           SKY/WX    TMP DP  RH WIND       PRES   REMARKS
CHARLOTTE      MOSUNNY   49  23  36 N6        30.35R
GREENSBORO     MOSUNNY   42  21  43 NW5       30.36R
WINSTON-SALEM  MOSUNNY   43  19  38 NW8       30.38R
RALEIGH-DURHAM MOSUNNY   44  22  41 N6        30.39R
FORT BRAGG     MOSUNNY   51  27  39 W6        30.35S
FAYETTEVILLE   SUNNY     52  27  38 N7        30.36R
BURLINGTON     MOSUNNY   43  21  41 N5        30.38R
LAURINBURG     SUNNY     52  27  38 E3        30.36S
$$

NCZ011-015-027-028-043-044-047-080-103-272200-
NORTHEASTERN NORTH CAROLINA

CITY           SKY/WX    TMP DP  RH WIND       PRES   REMARKS
ROCKY MT-WILSO SUNNY     47  26  44 N9        30.39R
GREENVILLE     SUNNY     48  28  46 N5        30.39S
WASHINGTON     SUNNY     46  29  53 N6        30.39S
ELIZABETH CITY CLOUDY    39  27  62 NE12      30.41R WCI  32
MANTEO         PTSUNNY   37  28  70 N12       30.42R WCI  30
CAPE HATTERAS  PTSUNNY   39  30  70 NE10G18   30.39R WCI  32
$$

NCZ078-087-090-091-093-098-101-272200-
SOUTHEASTERN NORTH CAROLINA

CITY           SKY/WX    TMP DP  RH WIND       PRES   REMARKS
LUMBERTON      SUNNY     51  29  42 CALM      30.35S
GOLDSBORO      SUNNY     48  32  54 NE9       30.36S
KINSTON        MOSUNNY   48  30  49 N7        30.39R
KENANSVILLE    MOSUNNY   49  27  42 N6        30.38F
NEW BERN       SUNNY     50  30  46 N8        30.39R
CHERRY POINT   MOSUNNY   50  29  44 NW10      30.38S
BEAUFORT       PTSUNNY   47  32  56 NE9       30.38R
JACKSONVILLE   MOSUNNY   50  30  46 N10       30.37S
WILMINGTON     PTSUNNY   51  32  48 NE7       30.36F
$$



USA.gov is the U.S. government's official web portal to all federal, state and local government web resources and services.